Location: Moscow
(55.7500°N, 37.5830°E)
Time: 05:13:04
(UTC+03:00)

Vanguard 1 - Pass Details

Date: 09 December 2021
Orbit: 652 x 3830 km, 34.2° (Epoch: 21 January)

Event Time Altitude Azimuth Distance (km) Brightness Sun altitude
Rises 03:00:41 0° 262° (W) 7,703 - -46.0°
Reaches altitude 10° 03:06:27 10° 255° (WSW) 6,855 - -45.3°
Maximum altitude 03:25:41 35° 200° (SSW) 4,883 - -42.9°
Exits shadow 03:29:05 34° 185° (S) 4,823 13.2 -42.5°
Drops below altitude 10° 03:41:36 10° 144° (SE) 5,688 14.0 -40.9°
Sets 03:45:50 0° 135° (SE) 6,310 14.4 -40.3°
